�������l�o���
Date,Time,MP-1(��Sv/h),MP-2(��Sv/h),MP-3(��Sv/h),MP-4(��Sv/h),MP-5(��Sv/h),MP-6(��Sv/h),MP-7(��Sv/h),MP-8(��Sv/h),����,����(m/s),���J
2014/10/07,00:00,2.057,3.655,4.003,3.615,3.623,1.392,1.965,2.193,�k�k��,3.2,��
2014/10/07,00:10,2.055,3.655,4.008,3.615,3.632,1.392,1.970,2.193,�k�k��,3.9,�L
2014/10/07,00:20,2.058,3.657,4.007,3.615,3.633,1.390,1.970,2.197,�k�k��,3.6,��
2014/10/07,00:30,2.057,3.658,4.010,3.615,3.632,1.390,1.970,2.197,�k�k��,4.2,��
2014/10/07,00:40,2.055,3.660,4.013,3.615,3.638,1.390,1.972,2.197,�k�k��,4.1,��
2014/10/07,00:50,2.057,3.662,4.008,3.620,3.638,1.393,1.970,2.198,�k��,5.2,�L
2014/10/07,01:00,2.058,3.660,4.010,3.618,3.640,1.390,1.968,2.198,�k�k��,5.6,�L
2014/10/07,01:10,2.057,3.658,4.010,3.620,3.642,1.392,1.968,2.198,�k�k��,6.9,�L
2014/10/07,01:20,2.052,3.645,4.000,3.610,3.630,1.388,1.965,2.193,�k�k��,6.1,�L
2014/10/07,01:30,2.048,3.642,3.990,3.603,3.620,1.385,1.965,2.193,�k�k��,7.4,�L
2014/10/07,01:40,2.043,3.630,3.983,3.595,3.613,1.388,1.967,2.193,�k�k��,5.8,�L
2014/10/07,01:50,2.047,3.627,3.983,3.597,3.615,1.388,1.965,2.192,�k,5.5,�L
2014/10/07,02:00,2.042,3.625,3.978,3.593,3.615,1.383,1.960,2.187,�k,5.8,�L
2014/10/07,02:10,2.032,3.603,3.960,3.580,3.597,1.383,1.957,2.185,�k,6.0,�L
2014/10/07,02:20,2.033,3.595,3.958,3.577,3.593,1.383,1.958,2.185,�k,6.7,�L
2014/10/07,02:30,2.035,3.602,3.967,3.578,3.595,1.383,1.960,2.187,�k,6.9,�L
2014/10/07,02:40,2.037,3.608,3.973,3.582,3.605,1.383,1.960,2.187,�k,6.1,�L
2014/10/07,02:50,2.037,3.615,3.975,3.585,3.613,1.385,1.960,2.188,�k,5.6,�L
2014/10/07,03:00,2.038,3.617,3.978,3.583,3.615,1.388,1.963,2.190,�k�k��,5.5,�L
2014/10/07,03:10,2.038,3.618,3.980,3.583,3.622,1.385,1.962,2.187,�k�k��,5.7,�L
2014/10/07,03:20,2.038,3.623,3.978,3.583,3.623,1.388,1.963,2.190,�k�k��,6.4,�L
2014/10/07,03:30,2.037,3.627,3.980,3.587,3.627,1.387,1.963,2.190,�k�k��,6.0,�L
2014/10/07,03:40,2.038,3.623,3.987,3.588,3.627,1.385,1.967,2.190,�k�k��,6.0,��
2014/10/07,03:50,2.042,3.623,3.985,3.592,3.627,1.388,1.963,2.192,�k��,6.3,��
2014/10/07,04:00,2.042,3.627,3.988,3.592,3.635,1.388,1.965,2.192,�k�k��,5.2,��
2014/10/07,04:10,2.042,3.633,3.992,3.593,3.638,1.390,1.965,2.190,�k��,5.8,��
2014/10/07,04:20,2.042,3.633,3.993,3.592,3.640,1.388,1.963,2.195,�k�k��,5.3,�L
2014/10/07,04:30,2.045,3.635,3.993,3.595,3.643,1.388,1.967,2.195,�k�k��,6.0,��
2014/10/07,04:40,2.040,3.640,3.995,3.592,3.645,1.388,1.967,2.193,�k�k��,6.0,��
2014/10/07,04:50,2.043,3.640,3.997,3.592,3.645,1.388,1.967,2.195,�k��,5.4,��
2014/10/07,05:00,2.047,3.642,3.997,3.592,3.652,1.390,1.967,2.197,�k��,5.6,��
2014/10/07,05:10,2.045,3.640,4.000,3.595,3.652,1.388,1.963,2.197,�k��,5.1,��
2014/10/07,05:20,2.047,3.642,4.000,3.597,3.653,1.392,1.967,2.195,�k�k��,4.6,��
2014/10/07,05:30,2.045,3.642,4.002,3.598,3.653,1.390,1.968,2.195,�k�k��,4.7,��
2014/10/07,05:40,2.047,3.645,3.998,3.600,3.655,1.392,1.970,2.195,�k�k��,4.8,��
2014/10/07,05:50,2.047,3.643,4.005,3.603,3.653,1.392,1.968,2.195,�k�k��,5.4,��
2014/10/07,06:00,2.047,3.648,4.005,3.600,3.660,1.390,1.968,2.197,�k�k��,5.4,��
2014/10/07,06:10,2.047,3.647,4.005,3.603,3.662,1.388,1.968,2.198,�k�k��,5.6,��
2014/10/07,06:20,2.047,3.648,4.008,3.603,3.662,1.390,1.973,2.197,�k�k��,5.3,��
2014/10/07,06:30,2.048,3.647,4.008,3.598,3.662,1.390,1.972,2.197,�k�k��,5.1,��
2014/10/07,06:40,2.047,3.655,4.010,3.605,3.663,1.388,1.970,2.198,�k�k��,6.1,��
2014/10/07,06:50,2.047,3.652,4.012,3.607,3.667,1.387,1.970,2.198,�k�k��,5.8,��
2014/10/07,07:00,2.052,3.657,4.012,3.605,3.665,1.388,1.973,2.198,�k�k��,6.0,��
2014/10/07,07:10,2.053,3.655,4.015,3.605,3.672,1.390,1.972,2.198,�k�k��,5.3,��
2014/10/07,07:20,2.048,3.658,4.015,3.608,3.673,1.382,1.972,2.200,�k�k��,4.6,��
2014/10/07,07:30,2.048,3.660,4.015,3.612,3.677,1.380,1.973,2.200,�k�k��,4.5,��
2014/10/07,07:40,2.050,3.662,4.018,3.612,3.677,1.363,1.973,2.202,�k,5.0,��
2014/10/07,07:50,2.052,3.667,4.023,3.615,3.680,1.340,1.973,2.200,�k�k��,5.3,��
2014/10/07,08:00,2.050,3.667,4.023,3.615,3.680,1.333,1.975,2.202,�k,5.0,��
2014/10/07,08:10,2.052,3.668,4.027,3.617,3.687,1.330,1.975,2.203,�k�k��,5.6,��
2014/10/07,08:20,2.055,3.670,4.027,3.617,3.690,1.323,1.975,2.202,�k�k��,4.8,��
2014/10/07,08:30,2.053,3.672,4.032,3.623,3.693,1.323,1.975,2.200,�k,3.6,��
2014/10/07,08:40,2.055,3.677,4.032,3.620,3.690,1.322,1.975,2.207,�k,3.7,��
2014/10/07,08:50,2.057,3.678,4.033,3.623,3.695,1.320,1.975,2.203,�k�k��,3.9,��
2014/10/07,09:00,2.058,3.685,4.043,3.627,3.703,1.325,1.975,2.205,�k,3.7,��
2014/10/07,09:10,2.057,3.687,4.050,3.630,3.710,1.325,1.975,2.203,�k,3.5,��
2014/10/07,09:20,2.058,3.690,4.053,3.630,3.715,1.325,1.977,2.207,�k�k��,3.4,��
2014/10/07,09:30,2.058,3.692,4.053,3.633,3.717,1.325,1.978,2.208,�k�k��,4.0,��
2014/10/07,09:40,2.062,3.692,4.058,3.635,3.725,1.328,1.977,2.208,�k�k��,4.4,��
2014/10/07,09:50,-,3.695,4.063,3.633,3.723,1.325,1.977,2.208,�k�k��,4.4,��
2014/10/07,10:00,-,3.700,4.063,3.632,3.725,1.325,1.977,2.207,�k�k��,4.6,��
2014/10/07,10:10,-,3.707,4.067,3.630,3.728,1.328,1.978,2.208,�k��,4.2,��
2014/10/07,10:20,-,3.708,4.068,3.633,3.735,1.328,1.977,2.208,�k��,4.6,��
2014/10/07,10:30,-,3.705,4.072,3.638,3.740,1.328,1.980,2.208,�k��,5.2,��
2014/10/07,10:40,2.068,3.705,4.080,3.637,3.748,1.328,1.980,2.207,�k��,5.0,��
2014/10/07,10:50,2.065,-,4.072,3.638,3.752,1.332,1.978,2.210,�k��,5.2,��
2014/10/07,11:00,2.065,-,4.078,3.642,3.752,1.332,1.978,2.212,�k��,4.8,��
2014/10/07,11:10,2.072,3.712,4.082,3.645,3.752,1.332,1.983,2.212,�k��,4.9,��
2014/10/07,11:20,2.068,3.722,4.082,3.647,3.753,1.337,1.982,2.210,�k��,4.0,��
2014/10/07,11:30,2.068,3.723,4.088,3.643,3.760,1.342,1.985,2.212,�k��,3.6,��
2014/10/07,11:40,2.068,3.723,4.090,3.645,3.763,1.345,1.985,2.210,���k��,3.8,��
2014/10/07,11:50,2.072,3.728,4.090,3.648,3.763,1.347,1.983,2.213,�k��,2.8,��
2014/10/07,12:00,2.068,3.730,4.093,3.650,3.770,1.343,1.985,2.215,��,3.5,��
2014/10/07,12:10,2.072,3.732,4.095,3.650,3.768,1.342,1.985,2.210,���k��,2.4,��
2014/10/07,12:20,2.073,3.733,4.100,3.650,3.768,1.345,1.988,2.213,���k��,2.6,��
2014/10/07,12:30,2.072,3.737,4.097,3.652,3.772,1.342,1.987,2.212,�k��,2.3,��
2014/10/07,12:40,2.072,3.740,4.102,3.655,3.777,1.347,1.988,2.217,�k��,3.0,��
2014/10/07,12:50,2.075,3.740,4.107,3.657,3.775,1.348,1.987,2.218,�k��,2.8,��
2014/10/07,13:00,2.070,3.747,4.107,3.657,3.778,1.350,1.990,2.217,�k��,3.0,��
2014/10/07,13:10,2.077,3.745,4.107,3.660,3.782,1.350,1.988,2.215,�k��,3.3,��
2014/10/07,13:20,2.075,3.745,4.108,3.657,3.788,1.353,1.985,2.213,���k��,2.9,��
2014/10/07,13:30,2.077,3.745,4.107,3.657,3.792,1.357,1.983,2.215,��,3.2,��
2014/10/07,13:40,2.075,3.748,4.113,3.658,3.793,1.357,1.982,2.215,��,3.5,��
2014/10/07,13:50,2.077,3.750,4.112,3.660,3.790,1.358,1.987,2.220,��,2.6,��
2014/10/07,14:00,2.072,3.752,4.112,3.665,3.792,1.358,1.985,2.215,���k��,2.1,��
2014/10/07,14:10,2.073,3.755,4.113,3.660,3.797,1.360,1.987,2.217,���k��,2.8,��
2014/10/07,14:20,2.075,3.757,4.115,3.662,3.805,1.362,1.985,2.215,���k��,2.6,��
2014/10/07,14:30,2.073,3.752,4.115,3.663,3.803,1.362,1.985,2.218,��,2.3,��
2014/10/07,14:40,2.075,3.753,4.122,3.665,3.802,1.363,1.990,2.213,��,3.4,��
2014/10/07,14:50,2.073,3.757,4.120,3.660,3.802,1.365,1.992,2.213,��,1.8,��
2014/10/07,15:00,2.072,3.752,4.115,3.663,3.793,1.368,1.988,2.213,��,1.9,��
2014/10/07,15:10,2.075,3.757,4.120,3.667,3.805,1.372,1.988,2.218,�쓌,2.0,��
2014/10/07,15:20,2.077,3.757,4.125,3.667,3.803,1.373,1.992,2.218,���쓌,1.7,��
2014/10/07,15:30,2.078,3.757,4.118,3.668,3.807,1.378,1.990,2.218,�쓌,2.1,��
2014/10/07,15:40,2.077,3.755,4.120,3.667,3.807,1.382,1.992,2.217,���쓌,1.1,��
2014/10/07,15:50,2.080,3.758,4.122,3.667,3.808,1.383,1.992,2.215,���쓌,1.3,��
2014/10/07,16:00,2.080,3.758,4.120,3.668,3.810,1.382,1.992,2.218,���쓌,0.9,��
2014/10/07,16:10,2.078,3.755,4.117,3.670,3.810,1.385,1.992,2.217,���쓌,0.8,��
2014/10/07,16:20,2.073,3.760,4.122,3.667,3.810,1.387,1.990,2.217,�쓌,1.3,��
2014/10/07,16:30,2.077,3.755,4.120,3.668,3.812,1.393,1.992,2.215,�쓌,0.9,��
2014/10/07,16:40,2.075,3.748,4.120,3.667,3.810,1.400,1.995,2.215,�쓌,1.7,��
2014/10/07,16:50,2.077,3.748,4.123,3.667,3.808,1.402,1.992,2.215,��쓌,1.7,��
2014/10/07,17:00,2.077,3.750,4.118,3.667,3.812,1.403,1.992,2.217,��쓌,1.8,��
2014/10/07,17:10,2.077,3.750,4.117,3.667,3.805,1.402,1.995,2.220,��쓌,2.0,��
2014/10/07,17:20,2.075,3.752,4.117,3.663,3.807,1.402,1.993,2.217,��쓌,1.9,��
2014/10/07,17:30,2.078,3.753,4.112,3.670,3.805,1.405,1.993,2.218,��,1.7,��
2014/10/07,17:40,2.077,3.752,4.117,3.665,3.805,1.407,1.993,2.217,��쓌,1.9,��
2014/10/07,17:50,2.077,3.752,4.115,3.665,3.810,1.405,1.992,2.217,��,2.1,��
2014/10/07,18:00,2.075,3.755,4.113,3.662,3.808,1.403,1.992,2.217,��쐼,2.1,��
2014/10/07,18:10,2.075,3.748,4.115,3.663,3.812,1.408,1.990,2.213,��쐼,2.4,��
2014/10/07,18:20,2.077,3.748,4.118,3.663,3.810,1.405,1.990,2.217,��,1.8,��
2014/10/07,18:30,2.075,3.753,4.117,3.665,3.813,1.403,1.993,2.218,��쐼,1.7,��
2014/10/07,18:40,2.077,3.748,4.115,3.663,3.807,1.405,1.992,2.218,��쐼,2.4,��
2014/10/07,18:50,2.078,3.748,4.113,3.665,3.810,1.402,1.992,2.218,��쐼,2.8,��
2014/10/07,19:00,2.073,3.748,4.112,3.665,3.813,1.405,1.992,2.217,��쐼,2.9,��
2014/10/07,19:10,2.072,3.748,4.112,3.663,3.808,1.408,1.993,2.218,��쐼,2.0,��
2014/10/07,19:20,2.070,3.750,4.113,3.667,3.810,1.403,1.992,2.213,��쐼,2.9,��
2014/10/07,19:30,2.073,3.748,4.110,3.663,3.807,1.405,1.997,2.217,��,2.2,��
2014/10/07,19:40,2.073,3.752,4.110,3.665,3.807,1.407,1.993,2.218,��쐼,3.1,��
2014/10/07,19:50,2.073,3.750,4.113,3.667,3.810,1.405,1.993,2.215,��쐼,3.2,��
2014/10/07,20:00,2.075,3.748,4.115,3.667,3.808,1.407,1.993,2.217,��쐼,4.4,��
2014/10/07,20:10,2.073,3.748,4.112,3.663,3.812,1.412,1.993,2.215,��쐼,4.5,��
2014/10/07,20:20,2.073,3.747,4.115,3.667,3.810,1.410,1.995,2.218,��쐼,4.8,��
2014/10/07,20:30,2.075,3.743,4.113,3.663,3.810,1.413,1.995,2.217,��쐼,4.7,��
2014/10/07,20:40,2.075,3.748,4.112,3.663,3.812,1.410,1.993,2.218,��쐼,4.7,��
2014/10/07,20:50,2.072,3.747,4.112,3.663,3.810,1.412,1.993,2.218,��쐼,4.5,��
2014/10/07,21:00,2.073,3.745,4.112,3.663,3.812,1.410,1.992,2.218,�쐼,4.7,��
2014/10/07,21:10,2.073,3.748,4.110,3.660,3.810,1.408,1.993,2.218,�쐼,4.4,��
2014/10/07,21:20,2.078,3.747,4.110,3.660,3.812,1.410,1.993,2.217,��쐼,4.6,��
2014/10/07,21:30,2.077,3.743,4.112,3.665,3.812,1.410,1.992,2.217,��쐼,4.4,��
2014/10/07,21:40,2.073,3.745,4.112,3.665,3.808,1.413,1.993,2.218,��쐼,4.1,��
2014/10/07,21:50,2.077,3.748,4.113,3.663,3.810,1.410,1.992,2.218,��쐼,4.1,��
2014/10/07,22:00,2.073,3.745,4.112,3.665,3.805,1.408,1.992,2.220,��쐼,3.9,��
2014/10/07,22:10,2.077,3.742,4.108,3.662,3.808,1.408,1.990,2.218,��쐼,3.8,��
2014/10/07,22:20,2.075,3.748,4.110,3.667,3.810,1.412,1.993,2.217,��쐼,3.8,��
2014/10/07,22:30,2.077,3.743,4.110,3.662,3.812,1.408,1.992,2.217,��쐼,4.1,��
2014/10/07,22:40,2.077,3.747,4.110,3.665,3.810,1.408,1.992,2.220,�쐼,3.8,��
2014/10/07,22:50,2.077,3.750,4.107,3.662,3.810,1.410,1.992,2.218,�쐼,3.5,��
2014/10/07,23:00,2.073,3.748,4.108,3.662,3.807,1.410,1.992,2.220,�쐼,3.2,��
2014/10/07,23:10,2.073,3.748,4.107,3.662,3.813,1.408,1.997,2.217,��쐼,4.0,��
2014/10/07,23:20,2.072,3.745,4.108,3.662,3.810,1.408,1.993,2.217,��쐼,3.8,��
2014/10/07,23:30,2.073,3.742,4.110,3.662,3.810,1.410,1.992,2.218,��쐼,3.8,��
2014/10/07,23:40,2.073,3.745,4.110,3.662,3.813,1.412,1.988,2.217,��쐼,3.4,��
2014/10/07,23:50,2.075,3.750,4.108,3.662,3.807,1.412,1.992,2.222,��쐼,3.0,��
